Location: McFarlands Corners
(41.4117°N, 81.3382°W)
Time: 16:39:07
(UTC+00:00)

SR - Pass Details

Date: 22 February 2026
Orbit: 572 x 849 km, 66.7° (Epoch: 12 March)

Event Time Altitude Azimuth Distance (km) Brightness Sun altitude
Rises 17:46:52 0° 328° (NNW) 3,114 ? 38.6°
Reaches altitude 10° 17:49:09 10° 327° (NNW) 2,233 ? 38.5°
Maximum altitude 17:54:17 79° 242° (WSW) 791 ? 38.5°
Drops below altitude 10° 17:59:46 10° 157° (SSE) 2,387 ? 38.4°
Sets 18:02:16 0° 156° (SSE) 3,344 ? 38.3°
